Notices

What's New in latest Release from April 7th, 2021:

- Updated Glossary, including Speed of Maximum Gust, and Total Hourly Precipitation

- Updated national and regional climate services offices contacts and prices information

- Addition of station inventory lists for 1981-2010, 1971-2000, and 1961-1990 Normals.

If you haven't already, please take our survey and provide feedback about our website: https://eccc.sondage-survey.ca/f/LanguageSelection.aspx?s=442ca660-fcf1-47c0-95a9-59707d6fd709

Hourly Data Report for July 17, 2016

TORONTO CITY
ONTARIO

43°40'00.000" N
79°24'00.000" W
112.50 m
6158355
71508
XTO

Download Data

Hourly Data (July 2016)
Hourly Data Report for July 17, 2016
TIME
LST
Temp Definition
°C
Dew Point Definition
°C
Rel Hum Definition
%
Precip. Amount Definition
mm

Wind Dir Definition
10's deg

Wind Spd Definition
km/h
Visibility Definition
km
Stn Press Definition
kPa
Hmdx Definition


Wind Chill Definition


Weather Definition


00:00 17.5 12.6 73 0.0 LegendMM LegendMM   100.57     LegendNANA
01:00 17.6 12.7 73 0.0 LegendMM LegendMM   100.57     LegendNANA
02:00 16.8 13.0 79 0.0 LegendMM LegendMM   100.60     LegendNANA
03:00 17.5 12.5 73 0.0 LegendMM LegendMM   100.60     LegendNANA
04:00 16.1 12.2 77 0.0 LegendMM LegendMM   100.63     LegendNANA
05:00 15.7 11.7 77 0.0 LegendMM LegendMM   100.69     LegendNANA
06:00 15.5 11.9 79 0.0 LegendMM LegendMM   100.72     LegendNANA
07:00 18.7 12.1 65 0.0 LegendMM LegendMM   100.76     LegendNANA
08:00 21.5 11.4 53 0.0 LegendMM LegendMM   100.75     LegendNANA
09:00 23.1 7.3 36 0.0 LegendMM LegendMM   100.75     LegendNANA
10:00 23.7 11.8 47 0.0 LegendMM LegendMM   100.72 26   LegendNANA
11:00 23.2 11.9 49 0.0 LegendMM LegendMM   100.72 25   LegendNANA
12:00 24.8 11.0 42 0.0 LegendMM LegendMM   100.68 27   LegendNANA
13:00 24.4 8.8 37 0.0 LegendMM LegendMM   100.69 25   LegendNANA
14:00 26.2 9.0 34 0.0 LegendMM LegendMM   100.58 27   LegendNANA
15:00 25.5 8.9 35 0.0 LegendMM LegendMM   100.56 26   LegendNANA
16:00 24.3 8.8 37 0.0 LegendMM LegendMM   100.47 25   LegendNANA
17:00 23.6 9.2 40 0.0 LegendMM LegendMM   100.42 25   LegendNANA
18:00 23.3 10.5 44 0.0 LegendMM LegendMM   100.30 25   LegendNANA
19:00 22.8 12.5 53 0.0 LegendMM LegendMM   100.20 25   LegendNANA
20:00 22.4 14.9 62 0.0 LegendMM LegendMM   100.18 26   LegendNANA
21:00 22.7 15.4 63 0.0 LegendMM LegendMM   100.18 27   LegendNANA
22:00 23.2 14.4 58 0.0 LegendMM LegendMM   100.12 27   LegendNANA
23:00 22.3 14.8 63 0.0 LegendMM LegendMM   100.09 26   LegendNANA

Notes on Data Quality.

Legend

  • E = Estimated
  • M = Missing
  • NA = Not Available*
  • [empty] = Indicates an unobserved value
Date modified: